Regional Weather Roundup
Issued by NWS

Home | Current Version | Previous Version | Graphics & Text | Print | Product List | Glossary Off
Versions: 1 2 3 4 5 6 7 8 9 10 11 12 13 14 15 16 17 18 19 20 21 22 23 24 25 26 27

000
ASUS45 KBOU 270807
RWRCO

WEATHER ROUNDUP FOR COLORADO
NATIONAL WEATHER SERVICE DENVER/BOULDER CO
200 AM MDT SAT AUG 27 2016

NOTE: "FAIR" INDICATES FEW OR NO CLOUDS BELOW 12000 FEET WITH NO
SIGNIFICANT WEATHER AND/OR OBSTRUCTIONS TO VISIBILITY.

COZ001>005-013-030-031-270900-
...NORTHWEST COLORADO...

CITY           SKY/WX    TMP DP  RH WIND       PRES   REMARKS
CRAIG          MOCLDY    53  43  68 E6        30.20F
HAYDEN         FAIR      50  37  62 E5        30.23F
MEEKER         FAIR      48  44  86 CALM      30.23F
MOUNT WERNER   NOT AVBL
STEAMBOAT SPGS FAIR      47  40  79 CALM      30.24F
WALDEN         FAIR      41  32  70 SE5       30.29S
$$

COZ006>008-011-270900-
...WEST CENTRAL VALLEYS...

CITY           SKY/WX    TMP DP  RH WIND       PRES   REMARKS
GRAND JUNCTION FAIR      59  46  62 E7        30.15F
MONTROSE       FAIR      55  45  68 S9        30.23S
EAGLE          FAIR      52  48  87 E5        30.30F
RIFLE          FAIR      53  51  93 E3        30.23F
DELTA          NOT AVBL
NUCLA          FAIR     N/A N/A N/A E6        30.24S
$$

COZ017>023-064>068-270900-
...SOUTHWEST COLORADO...

CITY           SKY/WX    TMP DP  RH WIND       PRES   REMARKS
DURANGO        FAIR      51  43  74 CALM      30.23F
CORTEZ         FAIR      59  49  69 SE7       30.21S
PAGOSA SPRINGS FAIR      46  44  96 CALM      30.31S
TELLURIDE      MOCLDY    46  43  90 SE6       30.39F
WOLF CREEK PAS FAIR      36  36 100 MISG      30.55F
$$

COZ009-010-012-014-032>034-037-058>063-270900-
...CENTRAL COLORADO...

CITY           SKY/WX    TMP DP  RH WIND       PRES   REMARKS
ASPEN          MOCLDY    48  44  86 SE8       30.34F
BUENA VISTA    FAIR      48  35  59 NW9       30.30S
COPPER MTN     CLOUDY    37  32  81 W9        30.51S
BERTHOUD PASS  FAIR      32  19  59 NW15      30.49F WCI  22
COTTONWOOD PAS FAIR      48  30  49 NW3       30.40S
GUNNISON       FAIR      46  37  71 CALM      30.34F
KREMMLING      FAIR      45  37  76 SE3       30.29S
LEADVILLE      FAIR      42  33  70 NW12G21   30.42R
MONARCH PASS   FAIR      36  32  87 SW14      30.62S
SALIDA         FAIR      54  38  53 CALM      30.35S
SUNLIGHT       CLOUDY    41  39  93 CALM      30.48F
WILKERSON PASS FAIR      41  32  70 SW7       30.49F
$$

COZ069>075-270900-
...SAN LUIS VALLEY/SANGRE DE CRISTO MOUNTAINS...

CITY           SKY/WX    TMP DP  RH WIND       PRES   REMARKS
ALAMOSA        FAIR      46  40  79 S9        30.28F
LA VETA PASS   FAIR      45  36  70 S7        30.41S
SAGUACHE       CLOUDY    54  39  58 NW3       30.31S
$$

COZ035-036-038>040-270900-
...NORTHERN COLORADO FRONT RANGE...

CITY           SKY/WX    TMP DP  RH WIND       PRES   REMARKS
DENVER INTL AP FAIR      54  49  83 S10       30.11F
DMNS CITY PARK   N/A     55  50  81 SE5       30.12S
AURORA         PTCLDY    53  47  82 S7        30.14F
FRONT RANGE AP NOT AVBL
ERIE MUNI ARPT FAIR      50  46  85 S3        30.11S
BOULDER MUN AP FAIR      54  50  87 CALM      30.11R
CENTENNIAL     FAIR      53  43  68 SW5       30.15S
BROOMFIELD     FAIR      54  46  76 CALM      30.13S
FORT COLLINS   FAIR      52  48  87 CALM      30.10F
LONGMONT       FAIR      51  46  83 CALM      30.12S
$$

COZ041-046-047-076>085-087-088-270900-
...PIKES PEAK/PALMER DIVIDE AND SOUTHERN FOOTHILLS...

CITY           SKY/WX    TMP DP  RH WIND       PRES   REMARKS
COLO. SPRINGS  MOCLDY    55  44  66 NE6       30.19F
A. F. ACADEMY  FAIR      48  44  87 N7        30.20S
SCHRIEVER AFB  NOT AVBL
ELLICOTT       NOT AVBL
FALCON         FAIR      51  44  77 W6        30.23S
FORT CARSON    FAIR      54  45  72 NW7       30.15F
LIMON          FAIR      43  43 100 N6        30.13F
MONUMENT HILL  FAIR      48  43  81 S10       30.23F
TRINIDAD       FAIR      56  46  69 W16G23    30.14S
$$

COZ042>045-048>051-090-091-270900-
...NORTHEAST COLORADO...

CITY           SKY/WX    TMP DP  RH WIND       PRES   REMARKS
GREELEY ARPT   FAIR      50  46  87 CALM      30.10S
AKRON          FAIR      55  52  89 S8        30.08F
BURLINGTON     FAIR      53  49  86 SE9       30.08F
WRAY           NOT AVBL
STERLING       FAIR      48  46  93 S3        30.06F
HOLYOKE        FOG       54  52  94 CALM      30.08F VSB 1/4
FORT MORGAN    FAIR      51  48  92 NE7       30.09S
$$

COZ086-089-092>099-270900-
...SOUTHEAST COLORADO...

CITY           SKY/WX    TMP DP  RH WIND       PRES   REMARKS
PUEBLO         FAIR      58  47  66 CALM      30.09S
LA JUNTA       FAIR      58  53  84 N6        30.05F
LAMAR          FAIR      56  55  97 E5        30.03S FOG
SPRINGFIELD      N/A     60  55  83 SW9       30.08F
$$




USA.gov is the U.S. government's official web portal to all federal, state and local government web resources and services.